Kirksville, MO

9:19 AM CST on November 19, 2017 (GMT -0600)
Kirksville Regional

Weather History for KIRK - November, 2011

Change the Weather History Date:

Friday, November 25, 2011

  Actual Average Record
Temperature  
Mean Temperature 51 °F 36 °F  
Max Temperature 58 °F 45 °F 66 °F (1960)
Min Temperature 44 °F 27 °F 4 °F (1950)
Degree Days  
Heating Degree Days 14 29  
Month to date heating degree days 492 583  
Since 1 July heating degree days 966 1072  
Cooling Degree Days 0 0  
Month to date cooling degree days 0 0  
Year to date cooling degree days 1197 939  
Moisture  
Dew Point 43 °F    
Average Humidity 72    
Maximum Humidity 83    
Minimum Humidity 61    
Precipitation  
Precipitation 0.00 in 0.08 in 0.71 in (1952)
Month to date precipitation 4.65 2.30  
Year to date precipitation 34.08 37.14  
Sea Level Pressure  
Sea Level Pressure 29.89 in    
Wind  
Wind Speed 13 mph (SSW)    
Max Wind Speed 21 mph    
Max Gust Speed 31 mph    
Visibility 10 miles    
Events      
T = Trace of Precipitation, MM = Missing Value Source: NWS Daily Summary

Daily Weather History Graph

Daily Weather History Graph

Search for Another Location

Airport or City:

Trip Planner

Search our weather history database for the weather conditions in past years. The results will help you decide how hot, cold, wet, or windy it might be!

Date:

Astronomy

Nov. 25, 2011 Rise Set
Actual Time 7:06 AM CST 4:47 PM CST
Civil Twilight 6:36 AM CST 5:17 PM CST
Nautical Twilight 6:03 AM CST 5:50 PM CST
Astronomical Twilight 5:31 AM CST 6:22 PM CST
Moon 7:35 AM CST (11/25) 5:15 PM CST (11/25)
Length of Visible Light 10h 40m
Length of Day
9h 40m
New Moon, 0% of the Moon is Illuminated
Nov 25
New Moon
Dec 2
First Quarter
Dec 10
Full
Dec 17
Last Quarter
Dec 24
New

Hourly Weather History & Observations

Time (CST) Temp. Windchill Dew Point Humidity Pressure Visibility Wind Dir Wind Speed Gust Speed Precip Events Conditions
12:55 AM 48.2 °F - 41.0 °F 76% 30.00 in 10.0 mi SSW 11.5 mph 19.6 mph N/A   Clear
1:55 AM 46.9 °F - 41.0 °F 80% 30.00 in 10.0 mi SSW 13.8 mph 21.9 mph N/A   Clear
2:55 AM 46.0 °F 39.9 °F 41.0 °F 83% 30.00 in 10.0 mi South 13.8 mph - N/A   Clear
3:55 AM 46.4 °F 39.8 °F 41.0 °F 81% 29.96 in 10.0 mi South 16.1 mph 24.2 mph N/A   Clear
4:55 AM 45.0 °F 39.3 °F 39.9 °F 82% 29.96 in 10.0 mi SSW 11.5 mph 20.7 mph N/A   Clear
5:55 AM 45.0 °F 38.9 °F 39.0 °F 80% 29.96 in 10.0 mi SSW 12.7 mph 19.6 mph N/A   Clear
6:55 AM 44.1 °F 37.4 °F 39.0 °F 82% 29.96 in 10.0 mi SSW 13.8 mph - N/A   Clear
7:55 AM 45.0 °F 38.9 °F 39.9 °F 82% 29.96 in 10.0 mi SSW 12.7 mph - N/A   Clear
8:31 AM 46.4 °F 39.8 °F 39.2 °F 76% 29.94 in 10.0 mi SSW 16.1 mph 26.5 mph N/A   Mostly Cloudy
8:55 AM 46.0 °F 39.6 °F 39.9 °F 79% 29.95 in 10.0 mi SSW 15.0 mph 24.2 mph N/A   Overcast
9:55 AM 48.0 °F - 42.1 °F 80% 29.94 in 10.0 mi SW 12.7 mph 21.9 mph N/A   Overcast
10:55 AM 50.0 °F - 43.0 °F 77% 29.94 in 10.0 mi SSW 17.3 mph 24.2 mph N/A   Overcast
11:55 AM 51.1 °F - 44.1 °F 77% 29.91 in 9.0 mi SW 12.7 mph 25.3 mph N/A   Overcast
12:55 PM 53.1 °F - 45.0 °F 74% 29.89 in 9.0 mi SSW 15.0 mph 23.0 mph N/A   Overcast
1:55 PM 54.0 °F - 46.0 °F 75% 29.87 in 9.0 mi SSW 6.9 mph - N/A   Overcast
2:26 PM 55.4 °F - 46.4 °F 72% 29.84 in 10.0 mi SW 6.9 mph - N/A   Overcast
2:55 PM 57.2 °F - 46.4 °F 67% 29.82 in 10.0 mi SSW 9.2 mph - N/A   Mostly Cloudy
3:55 PM 57.9 °F - 46.9 °F 67% 29.82 in 10.0 mi South 8.1 mph - N/A   Clear
4:55 PM 57.9 °F - 46.9 °F 67% 29.81 in 10.0 mi SSW 13.8 mph 20.7 mph N/A   Clear
5:55 PM 57.2 °F - 46.4 °F 67% 29.81 in 10.0 mi SSW 11.5 mph - N/A   Clear
6:55 PM 55.9 °F - 45.0 °F 67% 29.83 in 10.0 mi SSW 9.2 mph - N/A   Clear
7:55 PM 55.4 °F - 42.8 °F 63% 29.81 in 10.0 mi SSW 10.4 mph - N/A   Mostly Cloudy
8:55 PM 55.0 °F - 43.0 °F 64% 29.84 in 10.0 mi SSW 10.4 mph - N/A   Overcast
9:55 PM 55.4 °F - 42.8 °F 63% 29.83 in 10.0 mi SSW 16.1 mph 23.0 mph N/A   Mostly Cloudy
10:21 PM 55.4 °F - 42.8 °F 63% 29.83 in 10.0 mi SSW 12.7 mph 21.9 mph N/A   Overcast
10:55 PM 55.0 °F - 45.0 °F 69% 29.83 in 10.0 mi SSW 13.8 mph 23.0 mph N/A   Overcast
11:55 PM 55.0 °F - 43.0 °F 64% 29.84 in 10.0 mi South 11.5 mph - N/A   Overcast